Time,TemperatureF,DewpointF,PressureIn,WindDirection,WindDirectionDegrees,WindSpeedMPH,WindSpeedGustMPH,Humidity,HourlyPrecipIn,Conditions,Clouds,dailyrainin,SoftwareType,DateUTC
2013-02-12 00:01:00,25.5,20.0,30.00,West,265,1.0,4.0,81,0.00,,,0.00,weatherlink.com 1.10,2013-02-12 06:01:00,
2013-02-12 00:16:00,25.4,20.0,30.00,SSE,161,1.0,8.0,80,0.00,,,0.00,weatherlink.com 1.10,2013-02-12 06:16:00,
2013-02-12 00:31:00,25.3,20.0,30.00,West,272,0.0,6.0,80,0.00,,,0.00,weatherlink.com 1.10,2013-02-12 06:31:00,
2013-02-12 00:46:00,25.3,20.0,30.01,SW,227,3.0,8.0,81,0.00,,,0.00,weatherlink.com 1.10,2013-02-12 06:46:00,
2013-02-12 01:01:00,25.2,20.0,30.02,WSW,245,2.0,5.0,81,0.00,,,0.00,weatherlink.com 1.10,2013-02-12 07:01:00,
2013-02-12 01:16:00,25.0,20.0,30.02,WNW,300,2.0,4.0,81,0.00,,,0.00,weatherlink.com 1.10,2013-02-12 07:16:00,
2013-02-12 01:31:00,24.8,20.0,30.03,West,265,0.0,5.0,81,0.00,,,0.00,weatherlink.com 1.10,2013-02-12 07:31:00,
2013-02-12 01:46:00,24.8,20.0,30.04,NNW,328,4.0,5.0,82,0.00,,,0.00,weatherlink.com 1.10,2013-02-12 07:46:00,
2013-02-12 02:01:00,24.8,20.0,30.04,WSW,237,1.0,4.0,82,0.00,,,0.00,weatherlink.com 1.10,2013-02-12 08:01:00,
2013-02-12 02:16:00,24.8,20.0,30.04,SW,223,1.0,4.0,83,0.00,,,0.00,weatherlink.com 1.10,2013-02-12 08:16:00,
2013-02-12 02:31:00,24.7,20.0,30.05,SSW,192,2.0,7.0,83,0.00,,,0.00,weatherlink.com 1.10,2013-02-12 08:31:00,
2013-02-12 02:46:00,24.4,20.0,30.05,West,267,3.0,7.0,83,0.00,,,0.00,weatherlink.com 1.10,2013-02-12 08:46:00,
2013-02-12 03:01:00,24.2,20.0,30.05,SW,221,5.0,5.0,83,0.00,,,0.00,weatherlink.com 1.10,2013-02-12 09:01:00,
2013-02-12 03:17:00,23.9,20.0,30.05,SW,219,1.0,7.0,83,0.00,,,0.00,weatherlink.com 1.10,2013-02-12 09:17:00,
2013-02-12 03:32:00,23.5,19.0,30.05,SSW,202,3.0,10.0,83,0.00,,,0.00,weatherlink.com 1.10,2013-02-12 09:32:00,
2013-02-12 03:47:00,23.0,19.0,30.06,SSW,209,2.0,4.0,84,0.00,,,0.00,weatherlink.com 1.10,2013-02-12 09:47:00,
2013-02-12 04:03:00,22.5,18.0,30.06,SW,217,0.0,7.0,84,0.00,,,0.00,weatherlink.com 1.10,2013-02-12 10:03:00,
2013-02-12 04:17:00,22.2,18.0,30.06,SW,219,5.0,6.0,84,0.00,,,0.00,weatherlink.com 1.10,2013-02-12 10:17:00,
2013-02-12 04:32:00,21.8,18.0,30.07,SW,236,0.0,6.0,84,0.00,,,0.00,weatherlink.com 1.10,2013-02-12 10:32:00,
2013-02-12 04:47:00,21.7,18.0,30.07,SW,223,1.0,7.0,84,0.00,,,0.00,weatherlink.com 1.10,2013-02-12 10:47:00,
2013-02-12 05:02:00,21.5,17.0,30.08,SW,225,1.0,4.0,84,0.00,,,0.00,weatherlink.com 1.10,2013-02-12 11:02:00,
2013-02-12 05:17:00,21.4,17.0,30.07,SW,229,0.0,8.0,84,0.00,,,0.00,weatherlink.com 1.10,2013-02-12 11:17:00,
2013-02-12 05:32:00,21.3,17.0,30.07,West,279,3.0,8.0,84,0.00,,,0.00,weatherlink.com 1.10,2013-02-12 11:32:00,
2013-02-12 05:47:00,21.3,17.0,30.07,SW,219,0.0,4.0,84,0.00,,,0.00,weatherlink.com 1.10,2013-02-12 11:47:00,
2013-02-12 06:02:00,21.1,17.0,30.07,NW,314,0.0,7.0,84,0.00,,,0.00,weatherlink.com 1.10,2013-02-12 12:02:00,
2013-02-12 06:17:00,20.7,17.0,30.07,WSW,248,0.0,3.0,84,0.00,,,0.00,weatherlink.com 1.10,2013-02-12 12:17:00,
2013-02-12 06:32:00,20.6,17.0,30.07,SW,224,0.0,7.0,84,0.00,,,0.00,weatherlink.com 1.10,2013-02-12 12:32:00,
2013-02-12 06:47:00,20.6,17.0,30.07,WNW,290,0.0,4.0,85,0.00,,,0.00,weatherlink.com 1.10,2013-02-12 12:47:00,
2013-02-12 07:02:00,20.4,17.0,30.08,SW,219,3.0,5.0,85,0.00,,,0.00,weatherlink.com 1.10,2013-02-12 13:02:00,
2013-02-12 07:17:00,20.2,16.0,30.08,SW,229,0.0,5.0,84,0.00,,,0.00,weatherlink.com 1.10,2013-02-12 13:17:00,
2013-02-12 07:32:00,20.1,16.0,30.08,SSW,211,3.0,6.0,84,0.00,,,0.00,weatherlink.com 1.10,2013-02-12 13:32:00,
2013-02-12 07:47:00,20.2,16.0,30.08,WNW,294,2.0,8.0,84,0.00,,,0.00,weatherlink.com 1.10,2013-02-12 13:47:00,
2013-02-12 08:02:00,20.3,16.0,30.10,WSW,242,0.0,4.0,84,0.00,,,0.00,weatherlink.com 1.10,2013-02-12 14:02:00,
2013-02-12 08:17:00,20.5,16.0,30.11,SW,225,6.0,6.0,83,0.00,,,0.00,weatherlink.com 1.10,2013-02-12 14:17:00,
2013-02-12 08:32:00,20.8,17.0,30.11,WSW,250,0.0,5.0,84,0.00,,,0.00,weatherlink.com 1.10,2013-02-12 14:32:00,
2013-02-12 08:47:00,21.0,17.0,30.11,West,267,0.0,7.0,83,0.00,,,0.00,weatherlink.com 1.10,2013-02-12 14:47:00,
2013-02-12 09:02:00,21.0,17.0,30.10,SW,221,0.0,6.0,83,0.00,,,0.00,weatherlink.com 1.10,2013-02-12 15:02:00,
2013-02-12 09:17:00,21.4,17.0,30.10,SW,233,0.0,7.0,83,0.00,,,0.00,weatherlink.com 1.10,2013-02-12 15:17:00,
2013-02-12 09:32:00,21.7,17.0,30.09,NNE,33,1.0,4.0,81,0.00,,,0.00,weatherlink.com 1.10,2013-02-12 15:32:00,
2013-02-12 09:47:00,22.0,17.0,30.09,WSW,237,1.0,6.0,81,0.00,,,0.00,weatherlink.com 1.10,2013-02-12 15:47:00,
2013-02-12 10:02:00,22.5,17.0,30.08,West,265,1.0,6.0,79,0.00,,,0.00,weatherlink.com 1.10,2013-02-12 16:02:00,
2013-02-12 10:17:00,22.6,17.0,30.08,NW,313,6.0,6.0,78,0.00,,,0.00,weatherlink.com 1.10,2013-02-12 16:17:00,
2013-02-12 10:32:00,22.7,17.0,30.09,SW,223,2.0,5.0,79,0.00,,,0.00,weatherlink.com 1.10,2013-02-12 16:32:00,
2013-02-12 10:47:00,22.9,17.0,30.09,SW,226,2.0,4.0,78,0.00,,,0.00,weatherlink.com 1.10,2013-02-12 16:47:00,
2013-02-12 11:02:00,23.3,17.0,30.09,WSW,242,0.0,4.0,78,0.00,,,0.00,weatherlink.com 1.10,2013-02-12 17:02:00,
2013-02-12 11:17:00,23.6,17.0,30.09,WSW,243,0.0,5.0,77,0.00,,,0.00,weatherlink.com 1.10,2013-02-12 17:17:00,
2013-02-12 11:32:00,23.8,18.0,30.09,WSW,250,2.0,6.0,77,0.00,,,0.00,weatherlink.com 1.10,2013-02-12 17:32:00,
2013-02-12 12:02:00,24.8,18.0,30.07,West,275,2.0,5.0,75,0.00,,,0.00,weatherlink.com 1.10,2013-02-12 18:02:00,
2013-02-12 12:17:00,24.4,17.0,30.06,SSW,209,3.0,7.0,74,0.00,,,0.00,weatherlink.com 1.10,2013-02-12 18:17:00,
2013-02-12 12:32:00,24.5,17.0,30.05,WSW,237,3.0,7.0,74,0.00,,,0.00,weatherlink.com 1.10,2013-02-12 18:32:00,
2013-02-12 12:47:00,25.3,18.0,30.04,WSW,238,5.0,7.0,74,0.00,,,0.00,weatherlink.com 1.10,2013-02-12 18:47:00,
2013-02-12 13:02:00,26.7,19.0,30.03,WSW,246,5.0,5.0,74,0.00,,,0.00,weatherlink.com 1.10,2013-02-12 19:02:00,
2013-02-12 13:17:00,26.9,19.0,30.03,NW,313,1.0,5.0,71,0.00,,,0.00,weatherlink.com 1.10,2013-02-12 19:17:00,
2013-02-12 13:33:00,26.5,18.0,30.02,NNW,331,0.0,7.0,71,0.00,,,0.00,weatherlink.com 1.10,2013-02-12 19:33:00,
2013-02-12 13:48:00,27.1,19.0,30.02,SSW,202,3.0,5.0,71,0.00,,,0.00,weatherlink.com 1.10,2013-02-12 19:48:00,
2013-02-12 14:03:00,27.2,19.0,30.00,SSW,209,0.0,6.0,70,0.00,,,0.00,weatherlink.com 1.10,2013-02-12 20:03:00,
2013-02-12 14:18:00,27.2,19.0,30.00,SSW,207,0.0,7.0,71,0.00,,,0.00,weatherlink.com 1.10,2013-02-12 20:18:00,
2013-02-12 14:33:00,26.8,18.0,30.00,SSW,212,4.0,8.0,70,0.00,,,0.00,weatherlink.com 1.10,2013-02-12 20:33:00,
2013-02-12 14:48:00,26.7,19.0,30.01,SSW,195,3.0,8.0,72,0.00,,,0.00,weatherlink.com 1.10,2013-02-12 20:48:00,
2013-02-12 15:03:00,27.4,19.0,30.01,SW,217,4.0,5.0,71,0.00,,,0.00,weatherlink.com 1.10,2013-02-12 21:03:00,
2013-02-12 15:18:00,26.6,19.0,30.01,SSW,211,3.0,7.0,72,0.00,,,0.00,weatherlink.com 1.10,2013-02-12 21:18:00,
2013-02-12 15:33:00,26.5,19.0,30.01,SW,214,2.0,7.0,72,0.00,,,0.00,weatherlink.com 1.10,2013-02-12 21:33:00,
2013-02-12 15:48:00,26.9,19.0,30.01,SW,235,0.0,6.0,73,0.00,,,0.00,weatherlink.com 1.10,2013-02-12 21:48:00,
2013-02-12 16:03:00,26.8,19.0,30.01,SW,235,2.0,5.0,73,0.00,,,0.00,weatherlink.com 1.10,2013-02-12 22:03:00,
2013-02-12 16:18:00,26.2,19.0,30.00,SSW,213,4.0,5.0,75,0.00,,,0.00,weatherlink.com 1.10,2013-02-12 22:18:00,
2013-02-12 16:33:00,25.6,19.0,30.00,SSW,213,2.0,5.0,75,0.00,,,0.00,weatherlink.com 1.10,2013-02-12 22:33:00,
2013-02-12 16:48:00,25.4,19.0,29.99,SW,219,0.0,4.0,76,0.00,,,0.00,weatherlink.com 1.10,2013-02-12 22:48:00,
2013-02-12 17:03:00,25.1,19.0,29.99,SW,230,0.0,5.0,77,0.00,,,0.00,weatherlink.com 1.10,2013-02-12 23:03:00,
2013-02-12 17:18:00,24.7,19.0,29.99,SW,222,1.0,4.0,79,0.00,,,0.00,weatherlink.com 1.10,2013-02-12 23:18:00,
2013-02-12 17:33:00,24.2,19.0,29.99,SW,222,0.0,3.0,80,0.00,,,0.00,weatherlink.com 1.10,2013-02-12 23:33:00,
2013-02-12 17:48:00,23.8,19.0,29.99,SW,222,0.0,2.0,81,0.00,,,0.00,weatherlink.com 1.10,2013-02-12 23:48:00,
2013-02-12 18:03:00,23.5,19.0,29.99,SW,222,0.0,2.0,82,0.00,,,0.00,weatherlink.com 1.10,2013-02-13 00:03:00,
2013-02-12 18:18:00,23.2,19.0,29.99,SW,222,1.0,2.0,83,0.00,,,0.00,weatherlink.com 1.10,2013-02-13 00:18:00,
2013-02-12 18:33:00,23.0,19.0,29.99,SW,222,1.0,3.0,83,0.00,,,0.00,weatherlink.com 1.10,2013-02-13 00:33:00,
2013-02-12 18:48:00,22.8,19.0,29.98,SW,222,0.0,2.0,84,0.00,,,0.00,weatherlink.com 1.10,2013-02-13 00:48:00,
2013-02-12 19:03:00,22.6,19.0,29.97,SW,222,0.0,1.0,85,0.00,,,0.00,weatherlink.com 1.10,2013-02-13 01:03:00,
2013-02-12 19:18:00,22.2,18.0,29.97,SW,222,0.0,0.0,85,0.00,,,0.00,weatherlink.com 1.10,2013-02-13 01:18:00,
2013-02-12 19:33:00,22.0,19.0,29.97,SW,222,0.0,1.0,86,0.00,,,0.00,weatherlink.com 1.10,2013-02-13 01:33:00,
2013-02-12 19:48:00,21.7,18.0,29.97,SW,222,0.0,0.0,86,0.00,,,0.00,weatherlink.com 1.10,2013-02-13 01:48:00,
2013-02-12 20:03:00,21.2,18.0,29.97,SW,222,0.0,0.0,87,0.00,,,0.00,weatherlink.com 1.10,2013-02-13 02:03:00,
2013-02-12 20:18:00,20.8,18.0,29.97,SW,222,0.0,0.0,88,0.00,,,0.00,weatherlink.com 1.10,2013-02-13 02:18:00,
2013-02-12 20:33:00,20.5,18.0,29.97,SW,222,0.0,0.0,88,0.00,,,0.00,weatherlink.com 1.10,2013-02-13 02:33:00,
2013-02-12 20:48:00,20.1,17.0,29.96,SW,222,0.0,0.0,89,0.00,,,0.00,weatherlink.com 1.10,2013-02-13 02:48:00,
2013-02-12 21:03:00,19.7,17.0,29.95,SW,222,0.0,0.0,90,0.00,,,0.00,weatherlink.com 1.10,2013-02-13 03:03:00,
2013-02-12 21:18:00,19.5,17.0,29.95,SW,222,0.0,0.0,90,0.00,,,0.00,weatherlink.com 1.10,2013-02-13 03:18:00,
2013-02-12 21:33:00,19.6,17.0,29.95,SW,222,0.0,0.0,91,0.00,,,0.00,weatherlink.com 1.10,2013-02-13 03:33:00,
2013-02-12 21:48:00,21.3,20.0,29.94,SW,223,1.0,4.0,93,0.00,,,0.00,weatherlink.com 1.10,2013-02-13 03:48:00,
2013-02-12 22:03:00,22.3,20.0,29.93,SW,223,2.0,3.0,91,0.00,,,0.00,weatherlink.com 1.10,2013-02-13 04:03:00,
2013-02-12 22:18:00,22.6,20.0,29.93,SSW,208,0.0,3.0,90,0.00,,,0.00,weatherlink.com 1.10,2013-02-13 04:18:00,
2013-02-12 22:33:00,22.7,20.0,29.93,SSW,208,2.0,3.0,90,0.00,,,0.00,weatherlink.com 1.10,2013-02-13 04:33:00,
2013-02-12 22:48:00,23.1,21.0,29.92,SW,217,0.0,3.0,90,0.00,,,0.00,weatherlink.com 1.10,2013-02-13 04:48:00,
2013-02-12 23:03:00,23.0,20.0,29.92,SW,217,0.0,3.0,89,0.00,,,0.00,weatherlink.com 1.10,2013-02-13 05:03:00,
2013-02-12 23:18:00,22.8,20.0,29.91,SW,217,0.0,3.0,90,0.00,,,0.00,weatherlink.com 1.10,2013-02-13 05:18:00,
2013-02-12 23:33:00,23.0,21.0,29.91,SW,216,0.0,2.0,90,0.00,,,0.00,weatherlink.com 1.10,2013-02-13 05:33:00,
2013-02-12 23:48:00,23.0,21.0,29.91,SW,216,0.0,2.0,90,0.00,,,0.00,weatherlink.com 1.10,2013-02-13 05:48:00,